Time,TemperatureF,DewpointF,PressureIn,WindDirection,WindDirectionDegrees,WindSpeedMPH,WindSpeedGustMPH,Humidity,HourlyPrecipIn,Conditions,Clouds,dailyrainin,SoftwareType,DateUTC
2013-04-16 00:06:00,67.6,59.8,29.68,SSW,213,3.0,8.0,76,0.00,CLR,,0.00,WeatherDisplay:10.37,2013-04-15 14:06:00,
2013-04-16 00:21:00,67.6,59.8,29.68,SSW,212,1.0,6.0,76,0.00,CLR,,0.00,WeatherDisplay:10.37,2013-04-15 14:21:00,
2013-04-16 00:31:00,67.6,59.4,29.68,SSW,208,1.0,4.0,75,0.00,CLR,,0.00,WeatherDisplay:10.37,2013-04-15 14:31:00,
2013-04-16 00:41:00,67.6,59.8,29.68,SW,217,1.0,6.0,76,0.00,CLR,,0.00,WeatherDisplay:10.37,2013-04-15 14:41:00,
2013-04-16 00:46:00,67.6,59.8,29.67,SSW,212,2.0,6.0,76,0.00,CLR,,0.00,WeatherDisplay:10.37,2013-04-15 14:46:00,
2013-04-16 01:01:00,67.6,60.2,29.68,SSW,206,5.0,6.0,77,0.00,CLR,,0.00,WeatherDisplay:10.37,2013-04-15 15:01:00,
2013-04-16 01:16:00,67.8,60.7,29.68,SSW,204,1.0,6.0,78,0.00,CLR,,0.00,WeatherDisplay:10.37,2013-04-15 15:16:00,
2013-04-16 01:31:00,67.8,61.1,29.68,SSW,206,5.0,7.0,79,0.00,CLR,,0.00,WeatherDisplay:10.37,2013-04-15 15:31:00,
2013-04-16 01:46:00,67.8,61.1,29.68,SW,228,1.0,6.0,79,0.00,CLR,,0.00,WeatherDisplay:10.37,2013-04-15 15:46:00,
2013-04-16 01:51:00,67.8,61.1,29.68,SW,222,1.0,6.0,79,0.00,CLR,,0.00,WeatherDisplay:10.37,2013-04-15 15:51:00,
2013-04-16 02:06:00,67.8,61.4,29.68,SW,218,3.0,6.0,80,0.00,CLR,,0.00,WeatherDisplay:10.37,2013-04-15 16:06:00,
2013-04-16 02:31:00,67.8,61.8,29.70,WSW,239,2.0,9.0,81,0.00,CLR,,0.00,WeatherDisplay:10.37,2013-04-15 16:31:00,
2013-04-16 02:41:00,67.8,61.8,29.70,SSW,213,3.0,8.0,81,0.00,CLR,,0.00,WeatherDisplay:10.37,2013-04-15 16:41:00,
2013-04-16 02:51:00,67.8,61.4,29.70,SSW,211,2.0,9.0,80,0.00,CLR,,0.00,WeatherDisplay:10.37,2013-04-15 16:51:00,
2013-04-16 03:26:00,67.6,61.2,29.70,SW,229,2.0,6.0,80,0.00,CLR,,0.00,WeatherDisplay:10.37,2013-04-15 17:26:00,
2013-04-16 03:36:00,67.3,60.9,29.70,SW,222,3.0,8.0,80,0.00,CLR,,0.00,WeatherDisplay:10.37,2013-04-15 17:36:00,
2013-04-16 03:51:00,67.3,61.2,29.71,SW,217,1.0,6.0,81,0.00,CLR,,0.00,WeatherDisplay:10.37,2013-04-15 17:51:00,
2013-04-16 03:56:00,67.3,61.2,29.71,SSW,209,0.0,3.0,81,0.00,CLR,,0.00,WeatherDisplay:10.37,2013-04-15 17:56:00,
2013-04-16 04:01:00,67.3,61.2,29.71,SSW,208,3.0,6.0,81,0.00,CLR,,0.00,WeatherDisplay:10.37,2013-04-15 18:01:00,
2013-04-16 04:11:00,67.3,61.2,29.71,SW,223,3.0,8.0,81,0.00,CLR,,0.00,WeatherDisplay:10.37,2013-04-15 18:11:00,
2013-04-16 04:16:00,67.3,61.2,29.71,SW,223,2.0,6.0,81,0.00,CLR,,0.00,WeatherDisplay:10.37,2013-04-15 18:16:00,
2013-04-16 04:31:00,67.1,61.1,29.72,SW,224,1.0,5.0,81,0.00,CLR,,0.00,WeatherDisplay:10.37,2013-04-15 18:31:00,
2013-04-16 04:36:00,67.1,61.1,29.72,SW,218,2.0,7.0,81,0.00,CLR,,0.00,WeatherDisplay:10.37,2013-04-15 18:36:00,
2013-04-16 04:41:00,66.9,60.9,29.72,SSW,212,3.0,10.0,81,0.00,CLR,,0.00,WeatherDisplay:10.37,2013-04-15 18:41:00,
2013-04-16 04:46:00,66.9,60.9,29.72,SW,214,2.0,7.0,81,0.00,CLR,,0.00,WeatherDisplay:10.37,2013-04-15 18:46:00,
2013-04-16 04:56:00,66.9,60.9,29.72,SW,227,1.0,6.0,81,0.00,CLR,,0.00,WeatherDisplay:10.37,2013-04-15 18:56:00,
2013-04-16 05:06:00,66.9,60.9,29.73,SW,224,3.0,6.0,81,0.00,CLR,,0.00,WeatherDisplay:10.37,2013-04-15 19:06:00,
2013-04-16 05:11:00,66.8,60.8,29.73,SW,234,2.0,5.0,81,0.00,CLR,,0.00,WeatherDisplay:10.37,2013-04-15 19:11:00,
2013-04-16 05:21:00,66.7,60.7,29.73,WSW,237,1.0,5.0,81,0.00,CLR,,0.00,WeatherDisplay:10.37,2013-04-15 19:21:00,
2013-04-16 05:56:00,66.4,60.4,29.76,SW,216,3.0,9.0,81,0.00,CLR,,0.00,WeatherDisplay:10.37,2013-04-15 19:56:00,
2013-04-16 06:01:00,66.2,60.2,29.76,SW,220,5.0,8.0,81,0.00,CLR,,0.00,WeatherDisplay:10.37,2013-04-15 20:01:00,
2013-04-16 06:06:00,66.2,60.2,29.76,SW,221,2.0,5.0,81,0.00,CLR,,0.00,WeatherDisplay:10.37,2013-04-15 20:06:00,
2013-04-16 06:11:00,66.2,60.2,29.76,SW,217,3.0,8.0,81,0.00,CLR,,0.00,WeatherDisplay:10.37,2013-04-15 20:11:00,
2013-04-16 06:16:00,66.2,60.2,29.76,SW,233,0.0,8.0,81,0.00,CLR,,0.00,WeatherDisplay:10.37,2013-04-15 20:16:00,
2013-04-16 06:21:00,66.0,60.0,29.76,SW,236,1.0,6.0,81,0.00,CLR,,0.00,WeatherDisplay:10.37,2013-04-15 20:21:00,
2013-04-16 06:26:00,66.2,60.2,29.77,WSW,248,0.0,5.0,81,0.00,CLR,,0.00,WeatherDisplay:10.37,2013-04-15 20:26:00,
2013-04-16 06:31:00,66.2,60.2,29.78,WSW,243,1.0,9.0,81,0.00,CLR,,0.00,WeatherDisplay:10.37,2013-04-15 20:31:00,
2013-04-16 06:36:00,66.1,60.1,29.78,SW,236,2.0,7.0,81,0.00,CLR,,0.00,WeatherDisplay:10.37,2013-04-15 20:36:00,
2013-04-16 06:41:00,66.0,60.0,29.77,SW,215,5.0,8.0,81,0.04,RA,,0.04,WeatherDisplay:10.37,2013-04-15 20:41:00,
2013-04-16 06:46:00,66.0,60.0,29.78,SW,229,3.0,7.0,81,0.02,RA,,0.06,WeatherDisplay:10.37,2013-04-15 20:46:00,
2013-04-16 06:56:00,66.0,60.0,29.78,SSW,208,3.0,8.0,81,0.00,,,0.06,WeatherDisplay:10.37,2013-04-15 20:56:00,
2013-04-16 07:01:00,65.9,60.2,29.77,SW,216,2.0,7.0,82,0.00,,,0.06,WeatherDisplay:10.37,2013-04-15 21:01:00,
2013-04-16 07:11:00,65.7,60.1,29.78,SSW,196,3.0,10.0,82,0.00,RA,,0.08,WeatherDisplay:10.37,2013-04-15 21:11:00,
2013-04-16 07:21:00,65.5,59.8,29.79,WSW,246,1.0,5.0,82,0.02,RA,,0.10,WeatherDisplay:10.37,2013-04-15 21:21:00,
2013-04-16 07:31:00,65.3,60.0,29.81,WSW,250,2.0,5.0,83,0.00,RA,,0.12,WeatherDisplay:10.37,2013-04-15 21:31:00,
2013-04-16 07:36:00,65.1,59.8,29.81,WSW,240,1.0,6.0,83,0.00,,,0.12,WeatherDisplay:10.37,2013-04-15 21:36:00,
2013-04-16 07:41:00,65.1,59.8,29.81,SW,224,2.0,5.0,83,0.00,,,0.12,WeatherDisplay:10.37,2013-04-15 21:41:00,
2013-04-16 07:51:00,65.1,59.8,29.81,SW,214,1.0,5.0,83,0.02,RA,,0.14,WeatherDisplay:10.37,2013-04-15 21:51:00,
2013-04-16 07:56:00,65.1,59.8,29.81,SSW,207,3.0,6.0,83,0.00,RA,,0.14,WeatherDisplay:10.37,2013-04-15 21:56:00,
2013-04-16 08:06:00,65.1,59.8,29.80,SSW,213,2.0,5.0,83,0.00,,,0.14,WeatherDisplay:10.37,2013-04-15 22:06:00,
2013-04-16 08:11:00,65.1,59.8,29.81,SW,232,1.0,12.0,83,0.00,,,0.14,WeatherDisplay:10.37,2013-04-15 22:11:00,
2013-04-16 08:16:00,65.1,59.8,29.81,WSW,240,5.0,8.0,83,0.00,,,0.14,WeatherDisplay:10.37,2013-04-15 22:16:00,
2013-04-16 08:21:00,65.2,59.9,29.81,WSW,239,0.0,7.0,83,0.00,,,0.14,WeatherDisplay:10.37,2013-04-15 22:21:00,
2013-04-16 08:31:00,65.5,60.2,29.81,WSW,249,1.0,6.0,83,0.00,,,0.14,WeatherDisplay:10.37,2013-04-15 22:31:00,
2013-04-16 08:36:00,65.5,60.6,29.81,SW,228,0.0,3.0,84,0.00,,,0.14,WeatherDisplay:10.37,2013-04-15 22:36:00,
2013-04-16 08:41:00,65.8,60.8,29.81,WSW,241,1.0,5.0,84,0.00,,,0.14,WeatherDisplay:10.37,2013-04-15 22:41:00,
2013-04-16 08:51:00,65.8,60.9,29.83,WSW,245,2.0,7.0,84,0.00,CLR,,0.14,WeatherDisplay:10.37,2013-04-15 22:51:00,
2013-04-16 09:01:00,65.7,60.4,29.83,SW,218,3.0,5.0,83,0.00,CLR,,0.14,WeatherDisplay:10.37,2013-04-15 23:01:00,
2013-04-16 09:06:00,65.7,60.4,29.82,SSW,211,1.0,3.0,83,0.00,CLR,,0.14,WeatherDisplay:10.37,2013-04-15 23:06:00,
2013-04-16 09:11:00,65.7,60.4,29.81,SW,214,0.0,4.0,83,0.00,CLR,,0.14,WeatherDisplay:10.37,2013-04-15 23:11:00,
2013-04-16 09:16:00,65.8,60.5,29.81,SSW,204,1.0,5.0,83,0.00,CLR,,0.14,WeatherDisplay:10.37,2013-04-15 23:16:00,
2013-04-16 09:21:00,65.7,60.4,29.81,SSW,195,0.0,3.0,83,0.00,CLR,,0.14,WeatherDisplay:10.37,2013-04-15 23:21:00,
2013-04-16 09:26:00,65.7,60.4,29.81,SSW,199,0.0,2.0,83,0.00,CLR,,0.14,WeatherDisplay:10.37,2013-04-15 23:26:00,
2013-04-16 09:31:00,65.8,60.5,29.81,SSW,196,0.0,2.0,83,0.00,CLR,,0.14,WeatherDisplay:10.37,2013-04-15 23:31:00,
2013-04-16 09:36:00,65.8,60.5,29.81,SSW,212,0.0,0.0,83,0.00,CLR,,0.14,WeatherDisplay:10.37,2013-04-15 23:36:00,
2013-04-16 09:41:00,65.8,60.5,29.80,SW,223,0.0,2.0,83,0.00,CLR,,0.14,WeatherDisplay:10.37,2013-04-15 23:41:00,
2013-04-16 09:46:00,65.9,60.6,29.79,SSW,201,0.0,0.0,83,0.00,CLR,,0.14,WeatherDisplay:10.37,2013-04-15 23:46:00,
2013-04-16 10:01:00,66.6,61.2,29.78,SSE,164,0.0,0.0,83,0.00,CLR,,0.14,WeatherDisplay:10.37,2013-04-16 00:01:00,
2013-04-16 10:06:00,66.6,61.2,29.78,ESE,117,0.0,0.0,83,0.00,CLR,,0.14,WeatherDisplay:10.37,2013-04-16 00:06:00,
2013-04-16 10:16:00,66.7,61.4,29.80,SW,234,2.0,5.0,83,0.00,CLR,,0.14,WeatherDisplay:10.37,2013-04-16 00:16:00,
2013-04-16 10:21:00,66.7,61.4,29.79,SW,220,0.0,5.0,83,0.00,CLR,,0.14,WeatherDisplay:10.37,2013-04-16 00:21:00,
2013-04-16 10:26:00,66.8,61.5,29.80,SSW,193,0.0,0.0,83,0.00,CLR,,0.14,WeatherDisplay:10.37,2013-04-16 00:26:00,
2013-04-16 10:31:00,67.1,61.8,29.80,SW,220,0.0,2.0,83,0.00,CLR,,0.14,WeatherDisplay:10.37,2013-04-16 00:31:00,
2013-04-16 10:36:00,67.6,62.3,29.81,WSW,245,1.0,3.0,83,0.00,CLR,,0.14,WeatherDisplay:10.37,2013-04-16 00:36:00,
2013-04-16 10:41:00,67.8,62.5,29.81,WSW,255,1.0,6.0,83,0.00,CLR,,0.14,WeatherDisplay:10.37,2013-04-16 00:41:00,
2013-04-16 10:46:00,68.0,62.3,29.81,WSW,241,1.0,5.0,82,0.00,CLR,,0.14,WeatherDisplay:10.37,2013-04-16 00:46:00,
2013-04-16 10:51:00,67.8,61.8,29.81,SSW,199,5.0,9.0,81,0.00,CLR,,0.14,WeatherDisplay:10.37,2013-04-16 00:51:00,
2013-04-16 11:01:00,68.2,62.1,29.81,SSW,211,1.0,6.0,81,0.00,CLR,,0.14,WeatherDisplay:10.37,2013-04-16 01:01:00,
2013-04-16 11:06:00,68.2,62.2,29.81,SW,227,3.0,5.0,81,0.00,CLR,,0.14,WeatherDisplay:10.37,2013-04-16 01:06:00,
2013-04-16 11:11:00,68.5,62.1,29.81,SW,230,1.0,7.0,80,0.00,CLR,,0.14,WeatherDisplay:10.37,2013-04-16 01:11:00,
2013-04-16 11:16:00,68.5,62.1,29.80,SW,234,2.0,6.0,80,0.00,CLR,,0.14,WeatherDisplay:10.37,2013-04-16 01:16:00,
2013-04-16 11:21:00,68.7,61.9,29.81,WSW,249,0.0,6.0,79,0.00,CLR,,0.14,WeatherDisplay:10.37,2013-04-16 01:21:00,
2013-04-16 11:26:00,68.8,62.0,29.81,WSW,251,1.0,5.0,79,0.00,CLR,,0.14,WeatherDisplay:10.37,2013-04-16 01:26:00,
2013-04-16 11:31:00,69.3,62.5,29.81,WSW,245,1.0,5.0,79,0.00,CLR,,0.14,WeatherDisplay:10.37,2013-04-16 01:31:00,
2013-04-16 11:36:00,69.4,62.3,29.81,WSW,251,1.0,6.0,78,0.00,CLR,,0.14,WeatherDisplay:10.37,2013-04-16 01:36:00,
2013-04-16 11:41:00,69.6,62.5,29.80,WSW,252,2.0,7.0,78,0.00,CLR,,0.14,WeatherDisplay:10.37,2013-04-16 01:41:00,
2013-04-16 12:01:00,69.1,61.2,29.80,SW,230,1.0,6.0,76,0.00,CLR,,0.14,WeatherDisplay:10.37,2013-04-16 02:01:00,
2013-04-16 12:11:00,68.7,60.8,29.79,SW,224,0.0,3.0,76,0.00,CLR,,0.14,WeatherDisplay:10.37,2013-04-16 02:11:00,
2013-04-16 12:16:00,68.8,61.3,29.79,WSW,242,0.0,3.0,77,0.00,CLR,,0.14,WeatherDisplay:10.37,2013-04-16 02:16:00,
2013-04-16 12:21:00,69.1,61.6,29.78,SW,224,1.0,3.0,77,0.00,CLR,,0.14,WeatherDisplay:10.37,2013-04-16 02:21:00,
2013-04-16 12:26:00,69.4,61.9,29.78,SSW,209,0.0,4.0,77,0.00,CLR,,0.14,WeatherDisplay:10.37,2013-04-16 02:26:00,
2013-04-16 12:31:00,69.7,62.2,29.78,SW,223,2.0,5.0,77,0.00,CLR,,0.14,WeatherDisplay:10.37,2013-04-16 02:31:00,
2013-04-16 12:36:00,70.5,62.6,29.77,SW,234,1.0,6.0,76,0.00,CLR,,0.14,WeatherDisplay:10.37,2013-04-16 02:36:00,
2013-04-16 12:46:00,72.2,63.4,29.78,WSW,254,3.0,8.0,74,0.00,CLR,,0.14,WeatherDisplay:10.37,2013-04-16 02:46:00,
2013-04-16 12:51:00,73.2,64.0,29.77,West,262,6.0,10.0,73,0.00,CLR,,0.14,WeatherDisplay:10.37,2013-04-16 02:51:00,
2013-04-16 12:56:00,73.5,63.9,29.77,WSW,256,1.0,5.0,72,0.00,CLR,,0.14,WeatherDisplay:10.37,2013-04-16 02:56:00,
2013-04-16 13:01:00,73.6,63.6,29.76,WSW,242,1.0,5.0,71,0.00,CLR,,0.14,WeatherDisplay:10.37,2013-04-16 03:01:00,
2013-04-16 13:06:00,73.9,63.5,29.76,SW,215,3.0,9.0,70,0.00,CLR,,0.14,WeatherDisplay:10.37,2013-04-16 03:06:00,
2013-04-16 13:11:00,73.9,63.5,29.76,SW,222,3.0,6.0,70,0.00,CLR,,0.14,WeatherDisplay:10.37,2013-04-16 03:11:00,
2013-04-16 13:21:00,74.3,63.5,29.76,SW,234,3.0,6.0,69,0.00,CLR,,0.14,WeatherDisplay:10.37,2013-04-16 03:21:00,
2013-04-16 13:26:00,74.1,63.3,29.75,SSW,212,3.0,9.0,69,0.00,CLR,,0.14,WeatherDisplay:10.37,2013-04-16 03:26:00,
2013-04-16 13:31:00,74.2,63.4,29.75,SSW,213,5.0,10.0,69,0.00,CLR,,0.14,WeatherDisplay:10.37,2013-04-16 03:31:00,
2013-04-16 13:41:00,74.8,63.6,29.75,SSW,208,0.0,5.0,68,0.00,CLR,,0.14,WeatherDisplay:10.37,2013-04-16 03:41:00,
2013-04-16 13:51:00,74.1,62.9,29.76,SW,220,2.0,8.0,68,0.00,CLR,,0.14,WeatherDisplay:10.37,2013-04-16 03:51:00,
2013-04-16 13:56:00,73.6,62.8,29.76,SW,214,3.0,8.0,69,0.00,CLR,,0.14,WeatherDisplay:10.37,2013-04-16 03:56:00,
2013-04-16 14:01:00,73.2,62.4,29.75,SW,218,3.0,12.0,69,0.00,CLR,,0.14,WeatherDisplay:10.37,2013-04-16 04:01:00,
2013-04-16 14:06:00,73.0,62.2,29.76,SW,220,2.0,5.0,69,0.00,CLR,,0.14,WeatherDisplay:10.37,2013-04-16 04:06:00,
2013-04-16 14:11:00,72.7,61.9,29.76,SW,229,0.0,7.0,69,0.00,CLR,,0.14,WeatherDisplay:10.37,2013-04-16 04:11:00,
2013-04-16 14:21:00,72.8,62.5,29.76,SW,222,3.0,10.0,70,0.00,CLR,,0.14,WeatherDisplay:10.37,2013-04-16 04:21:00,
2013-04-16 14:26:00,72.7,62.3,29.76,SW,232,3.0,23.0,70,0.00,CLR,,0.14,WeatherDisplay:10.37,2013-04-16 04:26:00,
2013-04-16 14:31:00,72.7,62.3,29.76,SW,218,3.0,23.0,70,0.00,CLR,,0.14,WeatherDisplay:10.37,2013-04-16 04:31:00,
2013-04-16 14:41:00,72.3,62.0,29.76,SSW,203,1.0,7.0,70,0.00,CLR,,0.14,WeatherDisplay:10.37,2013-04-16 04:41:00,
2013-04-16 14:51:00,71.8,61.5,29.76,SW,231,2.0,13.0,70,0.00,CLR,,0.14,WeatherDisplay:10.37,2013-04-16 04:51:00,
2013-04-16 14:56:00,71.8,61.9,29.76,WSW,237,0.0,8.0,71,0.00,CLR,,0.14,WeatherDisplay:10.37,2013-04-16 04:56:00,
2013-04-16 15:06:00,71.8,61.9,29.76,SSW,213,6.0,8.0,71,0.00,CLR,,0.14,WeatherDisplay:10.37,2013-04-16 05:06:00,
2013-04-16 15:16:00,71.8,61.9,29.77,SSW,208,2.0,6.0,71,0.00,CLR,,0.14,WeatherDisplay:10.37,2013-04-16 05:16:00,
2013-04-16 15:26:00,71.8,61.9,29.76,SW,214,1.0,8.0,71,0.00,CLR,,0.14,WeatherDisplay:10.37,2013-04-16 05:26:00,
2013-04-16 15:31:00,71.8,61.5,29.76,SW,223,2.0,8.0,70,0.00,CLR,,0.14,WeatherDisplay:10.37,2013-04-16 05:31:00,
2013-04-16 15:36:00,71.8,61.5,29.76,SW,224,7.0,8.0,70,0.00,CLR,,0.14,WeatherDisplay:10.37,2013-04-16 05:36:00,
2013-04-16 15:41:00,71.8,61.5,29.76,SW,218,3.0,9.0,70,0.00,CLR,,0.14,WeatherDisplay:10.37,2013-04-16 05:41:00,
2013-04-16 15:51:00,71.4,61.1,29.76,SSW,208,3.0,12.0,70,0.00,CLR,,0.14,WeatherDisplay:10.37,2013-04-16 05:51:00,
2013-04-16 15:56:00,71.4,61.1,29.76,SSW,207,1.0,12.0,70,0.00,CLR,,0.14,WeatherDisplay:10.37,2013-04-16 05:56:00,
2013-04-16 16:01:00,71.2,61.4,29.75,SW,214,1.0,6.0,71,0.00,CLR,,0.14,WeatherDisplay:10.37,2013-04-16 06:01:00,
2013-04-16 16:06:00,71.2,61.3,29.75,SW,224,3.0,8.0,71,0.00,CLR,,0.14,WeatherDisplay:10.37,2013-04-16 06:06:00,
2013-04-16 16:11:00,70.9,61.0,29.76,SW,217,0.0,3.0,71,0.00,CLR,,0.14,WeatherDisplay:10.37,2013-04-16 06:11:00,
2013-04-16 16:16:00,70.9,61.4,29.76,SW,233,2.0,5.0,72,0.00,CLR,,0.14,WeatherDisplay:10.37,2013-04-16 06:16:00,
2013-04-16 16:21:00,70.7,61.3,29.76,SW,229,3.0,6.0,72,0.00,CLR,,0.14,WeatherDisplay:10.37,2013-04-16 06:21:00,
2013-04-16 16:26:00,70.8,61.4,29.75,SSW,212,3.0,8.0,72,0.00,CLR,,0.14,WeatherDisplay:10.37,2013-04-16 06:26:00,
2013-04-16 16:31:00,70.9,61.4,29.76,SSW,206,2.0,5.0,72,0.00,CLR,,0.14,WeatherDisplay:10.37,2013-04-16 06:31:00,
2013-04-16 16:36:00,70.9,61.4,29.76,SSW,210,2.0,10.0,72,0.00,CLR,,0.14,WeatherDisplay:10.37,2013-04-16 06:36:00,
2013-04-16 16:41:00,70.5,60.7,29.76,SW,216,1.0,6.0,71,0.00,CLR,,0.14,WeatherDisplay:10.37,2013-04-16 06:41:00,
2013-04-16 16:46:00,70.3,60.5,29.76,SW,222,2.0,4.0,71,0.00,CLR,,0.14,WeatherDisplay:10.37,2013-04-16 06:46:00,
2013-04-16 16:51:00,70.3,60.5,29.76,SSW,210,2.0,9.0,71,0.00,CLR,,0.14,WeatherDisplay:10.37,2013-04-16 06:51:00,
2013-04-16 16:56:00,70.2,60.7,29.77,SSW,212,1.0,5.0,72,0.00,CLR,,0.14,WeatherDisplay:10.37,2013-04-16 06:56:00,
2013-04-16 17:16:00,69.8,60.7,29.76,SW,223,1.0,5.0,73,0.00,CLR,,0.14,WeatherDisplay:10.37,2013-04-16 07:16:00,
2013-04-16 17:21:00,69.6,60.6,29.76,SW,223,1.0,4.0,73,0.00,CLR,,0.14,WeatherDisplay:10.37,2013-04-16 07:21:00,
2013-04-16 17:26:00,69.6,60.6,29.77,WSW,238,2.0,5.0,73,0.00,CLR,,0.14,WeatherDisplay:10.37,2013-04-16 07:26:00,
2013-04-16 17:36:00,69.4,60.4,29.77,West,271,0.0,4.0,73,0.00,CLR,,0.14,WeatherDisplay:10.37,2013-04-16 07:36:00,
2013-04-16 17:41:00,69.4,60.8,29.77,NW,321,0.0,1.0,74,0.00,CLR,,0.14,WeatherDisplay:10.37,2013-04-16 07:41:00,
2013-04-16 17:51:00,69.3,60.6,29.77,NNW,327,2.0,4.0,74,0.00,CLR,,0.14,WeatherDisplay:10.37,2013-04-16 07:51:00,
2013-04-16 17:56:00,69.1,60.4,29.77,NNW,332,3.0,3.0,74,0.00,CLR,,0.14,WeatherDisplay:10.37,2013-04-16 07:56:00,
2013-04-16 18:01:00,69.1,60.4,29.77,NNW,338,3.0,3.0,74,0.00,CLR,,0.14,WeatherDisplay:10.37,2013-04-16 08:01:00,
2013-04-16 18:11:00,68.9,60.6,29.78,NW,306,1.0,5.0,75,0.00,CLR,,0.14,WeatherDisplay:10.37,2013-04-16 08:11:00,
2013-04-16 18:16:00,68.7,60.5,29.79,WSW,251,3.0,5.0,75,0.00,CLR,,0.14,WeatherDisplay:10.37,2013-04-16 08:16:00,
2013-04-16 18:21:00,68.7,60.5,29.78,WSW,256,0.0,2.0,75,0.00,CLR,,0.14,WeatherDisplay:10.37,2013-04-16 08:21:00,
2013-04-16 18:31:00,68.5,60.3,29.78,SW,235,0.0,5.0,75,0.00,CLR,,0.14,WeatherDisplay:10.37,2013-04-16 08:31:00,
2013-04-16 18:41:00,68.4,60.5,29.79,SW,234,1.0,6.0,76,0.00,CLR,,0.14,WeatherDisplay:10.37,2013-04-16 08:41:00,
2013-04-16 18:46:00,68.2,60.4,29.79,SW,229,0.0,6.0,76,0.00,CLR,,0.14,WeatherDisplay:10.37,2013-04-16 08:46:00,
2013-04-16 18:51:00,68.2,60.3,29.79,SW,226,1.0,5.0,76,0.00,CLR,,0.14,WeatherDisplay:10.37,2013-04-16 08:51:00,
2013-04-16 18:56:00,68.2,60.3,29.80,SW,219,0.0,3.0,76,0.00,CLR,,0.14,WeatherDisplay:10.37,2013-04-16 08:56:00,
2013-04-16 19:06:00,68.0,60.1,29.80,SSW,194,0.0,2.0,76,0.00,CLR,,0.14,WeatherDisplay:10.37,2013-04-16 09:06:00,
2013-04-16 19:11:00,67.8,60.0,29.80,WSW,251,0.0,1.0,76,0.00,CLR,,0.14,WeatherDisplay:10.37,2013-04-16 09:11:00,
2013-04-16 19:16:00,67.8,60.0,29.80,SW,230,0.0,3.0,76,0.00,CLR,,0.14,WeatherDisplay:10.37,2013-04-16 09:16:00,
2013-04-16 19:21:00,67.8,60.0,29.80,SSW,202,1.0,3.0,76,0.00,CLR,,0.14,WeatherDisplay:10.37,2013-04-16 09:21:00,
2013-04-16 19:31:00,67.6,59.8,29.80,SW,222,1.0,3.0,76,0.00,CLR,,0.14,WeatherDisplay:10.37,2013-04-16 09:31:00,
2013-04-16 19:36:00,67.6,59.7,29.81,SW,232,2.0,4.0,76,0.00,CLR,,0.14,WeatherDisplay:10.37,2013-04-16 09:36:00,
2013-04-16 19:41:00,67.5,60.0,29.81,SW,236,3.0,7.0,77,0.00,CLR,,0.14,WeatherDisplay:10.37,2013-04-16 09:41:00,
2013-04-16 19:51:00,67.5,60.4,29.81,SW,219,3.0,5.0,78,0.00,CLR,,0.14,WeatherDisplay:10.37,2013-04-16 09:51:00,
2013-04-16 20:11:00,67.3,60.2,29.82,WSW,247,1.0,3.0,78,0.00,CLR,,0.14,WeatherDisplay:10.37,2013-04-16 10:11:00,
2013-04-16 20:16:00,67.3,60.2,29.82,WSW,237,0.0,3.0,78,0.00,CLR,,0.14,WeatherDisplay:10.37,2013-04-16 10:16:00,
2013-04-16 20:21:00,67.3,60.5,29.82,SW,216,0.0,3.0,79,0.00,CLR,,0.14,WeatherDisplay:10.37,2013-04-16 10:21:00,
2013-04-16 20:26:00,67.2,60.5,29.82,SSW,213,0.0,3.0,79,0.00,CLR,,0.14,WeatherDisplay:10.37,2013-04-16 10:26:00,
2013-04-16 20:31:00,67.1,60.4,29.82,SW,216,0.0,2.0,79,0.00,CLR,,0.14,WeatherDisplay:10.37,2013-04-16 10:31:00,
2013-04-16 20:36:00,66.9,60.2,29.82,SW,219,1.0,4.0,79,0.00,CLR,,0.14,WeatherDisplay:10.37,2013-04-16 10:36:00,
2013-04-16 20:41:00,66.9,60.2,29.82,SW,230,2.0,6.0,79,0.00,CLR,,0.14,WeatherDisplay:10.37,2013-04-16 10:41:00,
2013-04-16 20:46:00,66.9,60.2,29.82,WSW,250,1.0,3.0,79,0.00,CLR,,0.14,WeatherDisplay:10.37,2013-04-16 10:46:00,
2013-04-16 20:56:00,66.7,60.4,29.82,SW,227,2.0,4.0,80,0.00,CLR,,0.14,WeatherDisplay:10.37,2013-04-16 10:56:00,
2013-04-16 21:01:00,66.6,60.2,29.82,SW,220,2.0,5.0,80,0.00,CLR,,0.14,WeatherDisplay:10.37,2013-04-16 11:01:00,
2013-04-16 21:06:00,66.4,59.7,29.82,SW,231,3.0,6.0,79,0.00,CLR,,0.14,WeatherDisplay:10.37,2013-04-16 11:06:00,
2013-04-16 21:11:00,66.4,60.0,29.81,WSW,241,2.0,5.0,80,0.00,CLR,,0.14,WeatherDisplay:10.37,2013-04-16 11:11:00,
2013-04-16 21:16:00,66.2,59.8,29.82,WSW,239,2.0,6.0,80,0.00,CLR,,0.14,WeatherDisplay:10.37,2013-04-16 11:16:00,
2013-04-16 21:26:00,66.0,59.7,29.82,SW,220,1.0,6.0,80,0.00,CLR,,0.14,WeatherDisplay:10.37,2013-04-16 11:26:00,
2013-04-16 21:36:00,66.0,59.7,29.83,SW,226,2.0,6.0,80,0.00,CLR,,0.14,WeatherDisplay:10.37,2013-04-16 11:36:00,
2013-04-16 21:41:00,66.0,59.7,29.83,SW,223,2.0,6.0,80,0.00,CLR,,0.14,WeatherDisplay:10.37,2013-04-16 11:41:00,
2013-04-16 21:46:00,66.0,59.7,29.83,SW,232,1.0,3.0,80,0.00,CLR,,0.14,WeatherDisplay:10.37,2013-04-16 11:46:00,
2013-04-16 21:51:00,66.0,59.7,29.83,SW,229,1.0,4.0,80,0.00,CLR,,0.14,WeatherDisplay:10.37,2013-04-16 11:51:00,
2013-04-16 22:06:00,66.0,59.7,29.83,SW,235,1.0,4.0,80,0.00,CLR,,0.14,WeatherDisplay:10.37,2013-04-16 12:06:00,
2013-04-16 22:16:00,66.0,59.7,29.83,South,188,0.0,5.0,80,0.00,CLR,,0.14,WeatherDisplay:10.37,2013-04-16 12:16:00,
2013-04-16 22:21:00,65.8,59.5,29.84,SE,127,0.0,3.0,80,0.00,CLR,,0.14,WeatherDisplay:10.37,2013-04-16 12:21:00,
2013-04-16 22:41:00,65.8,59.5,29.84,South,189,1.0,4.0,80,0.04,RA,,0.18,WeatherDisplay:10.37,2013-04-16 12:41:00,
2013-04-16 22:46:00,65.8,59.5,29.84,South,191,1.0,3.0,80,0.00,RA,,0.18,WeatherDisplay:10.37,2013-04-16 12:46:00,
2013-04-16 22:51:00,65.8,59.8,29.84,SSW,210,0.0,0.0,81,0.04,RA,,0.22,WeatherDisplay:10.37,2013-04-16 12:51:00,
2013-04-16 22:56:00,65.6,59.6,29.84,SSW,194,0.0,0.0,81,0.00,RA,,0.22,WeatherDisplay:10.37,2013-04-16 12:56:00,
2013-04-16 23:01:00,65.5,59.5,29.84,South,178,0.0,0.0,81,0.00,,,0.22,WeatherDisplay:10.37,2013-04-16 13:01:00,
2013-04-16 23:06:00,65.5,59.5,29.84,SSW,195,0.0,2.0,81,0.02,RA,,0.24,WeatherDisplay:10.37,2013-04-16 13:06:00,
2013-04-16 23:11:00,65.3,59.3,29.85,South,183,0.0,2.0,81,0.00,RA,,0.24,WeatherDisplay:10.37,2013-04-16 13:11:00,
2013-04-16 23:16:00,65.1,59.1,29.84,SSE,154,0.0,2.0,81,0.00,,,0.24,WeatherDisplay:10.37,2013-04-16 13:16:00,
2013-04-16 23:21:00,64.9,59.0,29.85,SSE,158,0.0,2.0,81,0.00,,,0.24,WeatherDisplay:10.37,2013-04-16 13:21:00,
2013-04-16 23:31:00,64.8,58.8,29.84,SSW,197,0.0,0.0,81,0.00,,,0.24,WeatherDisplay:10.37,2013-04-16 13:31:00,
2013-04-16 23:36:00,64.6,58.6,29.84,SSW,208,1.0,2.0,81,0.00,,,0.24,WeatherDisplay:10.37,2013-04-16 13:36:00,
2013-04-16 23:41:00,64.6,58.6,29.83,SSW,212,1.0,5.0,81,0.00,,,0.24,WeatherDisplay:10.37,2013-04-16 13:41:00,
2013-04-16 23:46:00,64.6,58.6,29.84,SW,219,1.0,4.0,81,0.00,,,0.24,WeatherDisplay:10.37,2013-04-16 13:46:00,
2013-04-16 23:51:00,64.6,59.0,29.84,SW,218,2.0,6.0,82,0.00,,,0.24,WeatherDisplay:10.37,2013-04-16 13:51:00,